STARLINK-31759, 59740

Orbit data source: Space-Track

STARLINK-31759, 59740 is a payload satellite owned by SpaceX/Seattle (US) in LEO that was launched on Mon, 13 May 2024 UTC via an FALCON 9 launch vehicle from the Air Force Eastern Test Range (AFETR). Payload-class satellites include a variety of spacecraft equipped with specific instruments for various scientific and technological missions. These include communications satellites like Starlink; space stations such as the ISS; scientific satellites like the Hubble; Earth observation satellites from companies like Planet Labs, Umbra, and HawkEye 360; GPS; miniature CubeSats for education and research; and military/defense satellites.

Loading next visibility...
Identifier
59740, 2024-090L
Orbit
LEO
Country
Flag of USUS
Related business
Manufacturer
SpaceX/Seattle
Mission
Operational Commercial Communications
Bus & Motor
STARLINK V2M, Unknown motor
Mass
730 kg wet, ~700 kg dry
Launch date (UTC)
2024-05-13 (2 years ago)
Launch vehicle
FALCON 9
Launch site
Air Force Eastern Test Range (AFETR)
Object type
Payload
Rocket body
Debris
Shape & HBR
Box + 2 Pan, 17.7 m
Radar Cross Section
33.884 m², Large (>1 m²)

Expand to show TLE details & history
Last TLE update: 3 days ago

TLE from 3 days ago
0 STARLINK-31759
1 59740U 24090L   26170.41271186 -.00000205  00000-0  20797-5 0  9994
2 59740  43.0042 329.3358 0001135 263.5663  96.5059 15.27576108118998
Epoch: 2026-06-19T09:54Z
TLE epoch observation values (Epoch: 2026-06-19T09:54:18.304Z)
Latitude
-0.00006°
Longitude
-86.88258°
Altitude
482.925 km
Speed
7.626 km/s
True Right ascension
21h 57m 20s
True Declination
0° 00' 00"
Sunlit
Object was in full shadow at epoch
Visualization orbit readout
Latitude
Unknown
Longitude
Unknown
Altitude
Unknown
Speed
Unknown
Apparent Right ascension
Unknown
Apparent Declination
Unknown
Sunlit
N/A
Visualization observer readout
Local Sidereal Time
00:34:48
Azimuth
Unknown
Elevation
Unknown
Doppler factor
Unknown
Orbital elements
Apogee altitude
485.784 km
Perigee altitude
484.226 km
Semi-major axis
6,863.142 km
Eccentricity
0.00011
Inclination
43.0042°
RAAN
329.3358°
Arg. of periapsis
263.5663°
True anomaly
96.51882°
Mean anomaly
96.5059°
Eccentric anomaly
96.51236°
Mean motion
3.81732 °/min
Orbital period
94.31 mins
BSTAR
0.0000020797
Loading maneuver chart data...
Computing Atmospheric mass density...
Loading historical data...
Loading historical data...
Loading historical data...
Loading historical data...
Loading historical data...
Loading historical data...
Loading historical data...

Documentation

Showing up to 5 results
|